STARLINK-32267, 60363

Orbit data source: Space-Track

STARLINK-32267, 60363 is a payload satellite owned by SpaceX/Seattle (US) in LEO that was launched on Sun, 04 Aug 2024 UTC via an FALCON 9 launch vehicle from the Air Force Western Test Range (AFWTR). Payload-class satellites include a variety of spacecraft equipped with specific instruments for various scientific and technological missions. These include communications satellites like Starlink; space stations such as the ISS; scientific satellites like the Hubble; Earth observation satellites from companies like Planet Labs, Umbra, and HawkEye 360; GPS; miniature CubeSats for education and research; and military/defense satellites.

Loading next visibility...
Identifier
60363, 2024-138J
Orbit
LEO
Country
Flag of USUS
Related business
Manufacturer
SpaceX/Seattle
Mission
Operational Commercial Communications
Bus & Motor
STARLINK V2M, Unknown motor
Mass
730 kg wet, ~700 kg dry
Launch date (UTC)
2024-08-04 (2 years ago)
Launch vehicle
FALCON 9
Launch site
Air Force Western Test Range (AFWTR)
Object type
Payload
Rocket body
Debris
Shape & HBR
Box + 2 Pan, 17.7 m
Radar Cross Section
33.884 m², Large (>1 m²)

Expand to show TLE details & history
Last TLE update: 13 hours ago

TLE from 13 hours ago
0 STARLINK-32267
1 60363U 24138J   26258.11440534  .00000598  00000-0  28845-4 0  9994
2 60363  53.1607 148.7311 0001359 103.2083 256.9071 15.34393531119640
Epoch: 2026-09-15T02:44Z
TLE epoch observation values (Epoch: 2026-09-15T02:44:44.621Z)
Latitude
-0.00004°
Longitude
113.46016°
Altitude
463.835 km
Speed
7.636 km/s
True Right ascension
09h 54m 55s
True Declination
0° 00' 00"
Sunlit
Object was in daylight at epoch
Visualization orbit readout
Latitude
Unknown
Longitude
Unknown
Altitude
Unknown
Speed
Unknown
Apparent Right ascension
Unknown
Apparent Declination
Unknown
Sunlit
N/A
Visualization observer readout
Local Sidereal Time
08:42:14
Azimuth
Unknown
Elevation
Unknown
Doppler factor
Unknown
Orbital elements
Apogee altitude
463.909 km
Perigee altitude
462.05 km
Semi-major axis
6,841.116 km
Eccentricity
0.00014
Inclination
53.1607°
RAAN
148.7311°
Arg. of periapsis
103.2083°
True anomaly
256.89193°
Mean anomaly
256.9071°
Eccentric anomaly
256.89952°
Mean motion
3.83577 °/min
Orbital period
93.85 mins
BSTAR
0.000028845
Loading maneuver chart data...
Computing Atmospheric mass density...
Loading historical data...
Loading historical data...
Loading historical data...
Loading historical data...
Loading historical data...
Loading historical data...
Loading historical data...

Documentation

Showing up to 5 results
|